Location: Coupvray
(48.8929°N, 2.7967°E)
Time: 21:09:06
(UTC+00:00)

Cosmos 1238 Rocket - Pass Details

Date: 14 July 2020
Orbit: 374 x 1030 km, 82.9° (Epoch: 14 August)

Event Time Altitude Azimuth Distance (km) Brightness Sun altitude
Exits shadow 00:50:00 34° 204° (SSW) 1,250 4.0 -18.4°
Maximum altitude 00:52:16 71° 279° (W) 766 3.4 -18.3°
Drops below altitude 10° 00:56:47 10° 5° (N) 2,019 6.9 -18.1°
Sets 00:58:49 0° 7° (N) 2,831 8.1 -18.0°
